[[{"header":{"parameterUnit":"m.s-1","parameterCategory":1,"la1":30.2992,"la2":30.254,"lo1":-89.0895,"lo2":-89.0443,"dy":0.0025,"dx":0.0025,"nx":19,"ny":19,"refTime":"2026-04-12T03:00:00:Z","depth":0,"parameterNumber":2,"parameterNumberName":"U-component_of_WINDS"},"data":[0,0,0,-2.7131,-2.7133,-2.7222,-2.7222,-2.7339,-2.734,0,0,0,0,0,0,0,0,0,0,0,-2.7104,-2.7105,-2.7131,-2.7133,-2.7222,-2.7222,-2.7339,-2.734,0,0,0,0,0,0,0,0,0,0,0,-2.7104,-2.7105,-2.7106,-2.7134,-2.7222,-2.7222,-2.7338,-2.7271,0,0,0,0,0,0,0,0,0,0,-2.7185,-2.7158,-2.7105,-2.7106,-2.7134,-2.7221,-2.7222,-2.7268,-2.7275,-2.7299,0,-2.7318,0,-2.7331,-2.7348,-2.7348,0,0,0,-2.7135,-2.7152,-2.7176,-2.7106,-2.7135,-2.7221,-2.7182,-2.7272,-2.728,-2.7309,-2.732,-2.7324,-2.7333,-2.7348,-2.7349,-2.7477,-2.7477,0,0,-2.713,-2.7121,-2.7171,-2.7182,-2.7165,-2.7179,-2.7185,-2.7277,-2.7289,-2.732,-2.7327,-2.7334,-2.7349,-2.735,-2.7476,-2.7477,0,0,0,-2.7115,-2.7117,-2.7139,-2.7177,-2.7193,-2.7182,-2.7188,-2.7285,-2.7293,-2.7328,-2.7336,-2.735,-2.7351,-2.7476,-2.7477,-2.7492,0,0,0,-2.7112,-2.7108,-2.7137,-2.7132,-2.7191,-2.7239,-2.7194,-2.7286,-2.7297,-2.7335,-2.735,-2.7352,-2.7475,-2.7476,-2.749,-2.75,0,0,0,-2.7099,-2.7107,-2.7119,-2.7132,-2.7169,-2.7238,-2.7251,-2.7289,-2.7302,-2.7348,-2.7353,-2.7475,-2.7476,-2.7488,-2.7497,-2.7529,0,0,0,-2.7083,-2.7133,-2.7119,-2.7179,-2.7168,-2.7246,-2.725,-2.731,-2.7352,-2.735,-2.7475,-2.7477,-2.7488,-2.7496,-2.7527,-2.7552,-2.7562,0,0,-2.7141,-2.714,-2.7176,-2.7166,-2.7243,-2.7234,-2.7315,-2.7363,-2.7379,-2.7444,-2.7447,-2.749,-2.7497,-2.7529,-2.7625,-2.7633,0,0,0,-2.7191,-2.7216,-2.7239,-2.7277,-2.7314,-2.7347,-2.7383,-2.7402,-2.7457,-2.7409,-2.7512,-2.7517,-2.7535,-2.7548,-2.7554,-2.7571,-2.7482,-2.7482,-2.7482,-2.7259,-2.7273,-2.7333,-2.7358,-2.7396,-2.7433,-2.7465,-2.7496,-2.7502,-2.7526,-2.7544,-2.7601,-2.7615,-2.762,-2.7637,-2.7561,-2.7561,-2.7561,-2.7561,-2.7344,-2.7381,-2.7386,-2.7445,-2.7461,-2.7513,-2.7552,-2.7554,-2.7606,-2.7588,-2.7606,-2.7583,-2.7628,-2.7643,-2.7563,-2.7562,-2.7562,-2.7562,-2.7562,-2.7388,-2.7408,-2.7428,-2.7484,-2.7527,-2.7553,-2.7601,-2.7615,-2.7629,-2.7647,-2.7667,-2.7667,-2.7667,-2.7656,-2.7656,-2.7656,-2.7656,-2.7657,-2.7657,-2.7424,-2.7447,-2.7484,-2.7527,-2.7553,-2.759,-2.763,-2.7657,-2.7691,-2.7697,-2.7698,-2.77,-2.763,-2.761,-2.766,-2.7659,-2.7659,-2.7659,-2.7658,-2.7501,-2.7485,-2.7543,-2.7569,-2.7621,-2.7662,-2.768,-2.7735,-2.776,-2.7783,-2.7783,-2.773,-2.773,-2.7725,-2.7709,-2.778,-2.778,-2.778,-2.778,-2.7536,-2.7537,-2.7598,-2.7639,-2.7681,-2.7703,-2.7769,-2.7802,-2.7833,-2.785,-2.7843,-2.7824,-2.7818,-2.7822,-2.7815,-2.78,-2.7893,-2.7893,-2.7893,-2.7583,-2.7589,-2.764,-2.7668,-2.7711,-2.7748,-2.7811,-2.7859,-2.7893,-2.7898,-2.7864,-2.7859,-2.7828,-2.7818,-2.7819,-2.7807,-2.778,0,0]},{"header":{"parameterUnit":"m.s-1","parameterCategory":1,"la1":30.2992,"la2":30.254,"lo1":-89.0895,"lo2":-89.0443,"dy":0.0025,"dx":0.0025,"nx":19,"ny":19,"refTime":"2026-04-12T03:00:00:Z","depth":0,"parameterNumber":3,"parameterNumberName":"V-component_of_WINDS"},"data":[0,0,0,3.0492,3.0492,3.0516,3.0516,3.0523,3.0523,0,0,0,0,0,0,0,0,0,0,0,3.0471,3.047,3.0492,3.0492,3.0516,3.0516,3.0523,3.0523,0,0,0,0,0,0,0,0,0,0,0,3.0471,3.047,3.047,3.0492,3.0516,3.0516,3.0523,3.0513,0,0,0,0,0,0,0,0,0,0,3.0494,3.0461,3.047,3.047,3.0492,3.0516,3.0516,3.0513,3.0514,3.0502,0,3.0488,0,3.0506,3.0522,3.0522,0,0,0,3.0502,3.046,3.048,3.047,3.0492,3.0516,3.0508,3.0514,3.0515,3.0503,3.0489,3.049,3.0506,3.0522,3.0522,3.0423,3.0422,0,0,3.0501,3.0467,3.0479,3.0479,3.0475,3.0507,3.0508,3.0515,3.0497,3.0489,3.049,3.0506,3.0522,3.0522,3.0424,3.0423,0,0,0,3.049,3.0465,3.0485,3.0478,3.0485,3.0507,3.0509,3.0496,3.0506,3.0491,3.0506,3.0522,3.0521,3.0425,3.0424,3.0345,0,0,0,3.049,3.0459,3.0484,3.0464,3.0484,3.0491,3.049,3.0505,3.0507,3.0506,3.0522,3.0521,3.0426,3.0424,3.0349,3.0312,0,0,0,3.0474,3.0458,3.0457,3.0462,3.0471,3.0491,3.0502,3.0506,3.0516,3.0522,3.0521,3.0427,3.0425,3.0353,3.0319,3.0277,0,0,0,3.0447,3.0385,3.0455,3.0392,3.0471,3.0443,3.0502,3.0483,3.0478,3.0521,3.0426,3.0424,3.0354,3.0323,3.0281,3.0235,3.0213,0,0,3.035,3.0372,3.0338,3.0401,3.0353,3.0442,3.0382,3.0409,3.044,3.0427,3.0425,3.0348,3.032,3.0278,3.0102,3.0084,0,0,0,3.0296,3.0271,3.0265,3.026,3.0281,3.0296,3.0336,3.0347,3.0338,3.0427,3.0323,3.0307,3.0284,3.0263,3.0248,3.0231,3.0413,3.0413,3.0414,3.0108,3.0153,3.0101,3.0148,3.0143,3.0187,3.0187,3.0209,3.0254,3.0229,3.0224,3.0112,3.0087,3.0076,3.0057,3.0205,3.0204,3.0204,3.0204,2.997,2.9942,3.0007,2.9978,3.0026,3.0003,3.0044,3.0077,3.0062,3.0119,3.0101,3.0157,3.0055,3.0041,3.0198,3.0199,3.02,3.0201,3.0201,2.9851,2.9846,2.9861,2.9861,2.9855,2.9907,2.989,2.9935,2.9976,2.9958,2.9959,2.996,2.9967,2.9956,2.9955,2.9955,2.9955,2.9954,2.9954,2.9722,2.9742,2.9723,2.9742,2.9746,2.9757,2.9802,2.9807,2.9824,2.9858,2.9858,2.9906,3.0037,3.0069,2.9948,2.9949,2.995,2.9951,2.9951,2.9563,2.9607,2.9577,2.9581,2.9608,2.96,2.9659,2.9665,2.9676,2.9667,2.972,2.981,2.9835,2.9848,2.9874,2.9711,2.9711,2.9711,2.9711,2.9462,2.948,2.9461,2.9465,2.9474,2.9525,2.949,2.9526,2.957,2.958,2.961,2.965,2.966,2.9679,2.9695,2.9721,2.9522,2.9521,2.9521,2.9366,2.9388,2.935,2.9395,2.942,2.9441,2.9411,2.9413,2.9471,2.9515,2.9588,2.9596,2.966,2.9679,2.9721,2.9745,2.9792,0,0]}]]